User: anonymous   Login
Location: Valdosta
(30.8330°N, 83.2790°W)
Time: 03:33:11
(UTC-05:00)
Language:

Uribyol 2 - Orbit

View from above orbital plane
View from above orbital plane
View from above satellite
View from above satellite

Ground track
Ground track

The orbit data is extracted from the following two-line orbital elements,

1 22828U 93061F   14354.83096441  .00000502  00000-0  21003-3 0  7874
2 22828 098.6733 299.5493 0010981 076.5107 283.7298 14.30413158 75928
Epoch (UTC): 20 December 2014 19:56:35
Eccentricity: 0.0010981
inclination: 98.6733°
perigee height: 782 km
apogee height: 798 km
right ascension of ascending node: 299.5493°
argument of perigee: 76.5107°
revolutions per day: 14.30413158
mean anomaly at epoch: 283.7298°
orbit number at epoch: 7592

The dashed part of the orbit path shows where the satellite is in the earth's shadow,  

DLR